Moab, UT

7:01 PM MST on November 11, 2019 (GMT -0700)
Canyonlands

Weather History for KCNY - May, 2019

Change the Weather History Date:

Tuesday, May 7, 2019

  Actual Average Record
Temperature  
Mean Temperature 60 °F 60 °F  
Max Temperature 76 °F 74 °F 97 °F (1989)
Min Temperature 43 °F 45 °F 32 °F (2007)
Degree Days  
Heating Degree Days 5 6  
Month to date heating degree days 55 50  
Since 1 July heating degree days 5625 5475  
Cooling Degree Days 0 1  
Month to date cooling degree days 0 5  
Year to date cooling degree days 2 8  
Growing Degree Days 10 (Base 50)    
Moisture  
Dew Point 32 °F    
Average Humidity 40    
Maximum Humidity 65    
Minimum Humidity 15    
Precipitation  
Precipitation 0.00 in 0.02 in 0.65 in (1976)
Month to date precipitation T 0.15  
Year to date precipitation 4.99 2.77  
Sea Level Pressure  
Sea Level Pressure 29.69 in    
Wind  
Wind Speed 10 mph (West)    
Max Wind Speed 35 mph    
Max Gust Speed 45 mph    
Visibility 10 miles    
Events      
T = Trace of Precipitation, MM = Missing Value Source: NWS Daily Summary

Daily Weather History Graph

Daily Weather History Graph

Search for Another Location

Airport or City:

Astronomy

May. 07, 2019 Rise Set
Actual Time 6:14 AM MDT 8:16 PM MDT
Civil Twilight 5:45 AM MDT 8:46 PM MDT
Nautical Twilight 5:10 AM MDT 9:21 PM MDT
Astronomical Twilight 4:31 AM MDT 10:00 PM MDT
Moon 8:24 AM MDT (5/7) 11:20 PM MDT (5/7)
Length of Visible Light 15h 00m
Length of Day
14h 02m
Waxing Crescent, 9% of the Moon is Illuminated
May 7
Waxing Crescent
May 11
First Quarter
May 18
Full
May 26
Last Quarter
Jun 3
New

Hourly Weather History & Observations

Time (MDT) Temp. Dew Point Humidity Pressure Visibility Wind Dir Wind Speed Gust Speed Precip Events Conditions
12:53 AM 57.0 °F 35.1 °F 44% 29.69 in 10.0 mi West 5.8 mph - N/A   Clear
1:53 AM 53.1 °F 36.0 °F 52% 29.70 in 10.0 mi WSW 4.6 mph - N/A   Clear
2:53 AM 51.1 °F 36.0 °F 56% 29.70 in 10.0 mi WSW 5.8 mph - N/A   Clear
3:53 AM 50.0 °F 35.1 °F 57% 29.68 in 10.0 mi WSW 4.6 mph - N/A   Clear
4:53 AM 50.0 °F 36.0 °F 59% 29.69 in 10.0 mi Calm Calm - N/A   Clear
5:53 AM 48.0 °F 36.0 °F 63% 29.70 in 10.0 mi WSW 3.5 mph - N/A   Clear
6:53 AM 46.9 °F 36.0 °F 66% 29.72 in 10.0 mi Calm Calm - N/A   Clear
7:53 AM 57.0 °F 37.9 °F 49% 29.72 in 10.0 mi NNW 4.6 mph - N/A   Clear
8:53 AM 61.0 °F 28.9 °F 30% 29.72 in 10.0 mi SE 4.6 mph - N/A   Clear
9:53 AM 66.0 °F 24.1 °F 20% 29.70 in 10.0 mi Variable 5.8 mph - N/A   Clear
10:53 AM 68.0 °F 30.0 °F 24% 29.70 in 10.0 mi SW 8.1 mph 18.4 mph N/A   Clear
11:53 AM 70.0 °F 30.9 °F 24% 29.68 in 10.0 mi SW 8.1 mph 17.3 mph N/A   Clear
12:53 PM 72.0 °F 28.9 °F 20% 29.65 in 10.0 mi SW 11.5 mph 23.0 mph N/A   Clear
1:53 PM 73.0 °F 26.1 °F 17% 29.64 in 10.0 mi WSW 9.2 mph 20.7 mph N/A   Partly Cloudy
2:53 PM 75.9 °F 24.1 °F 15% 29.62 in 10.0 mi SW 16.1 mph 19.6 mph N/A   Clear
3:44 PM 70.0 °F 28.0 °F 21% 29.75 in 10.0 mi West 26.5 mph 43.7 mph N/A   Clear
3:53 PM 69.1 °F 28.0 °F 22% 29.64 in 10.0 mi WSW 27.6 mph 38.0 mph N/A   Scattered Clouds
4:53 PM 66.0 °F 27.0 °F 23% 29.65 in 10.0 mi West 31.1 mph 42.6 mph N/A   Clear
5:53 PM 68.0 °F 28.0 °F 22% 29.65 in 10.0 mi West 9.2 mph - N/A   Clear
6:22 PM 66.0 °F 32.0 °F 28% 29.77 in 10.0 mi NNW 18.4 mph - N/A   Clear
6:53 PM 64.9 °F 32.0 °F 29% 29.70 in 10.0 mi NNW 13.8 mph - N/A   Clear
7:53 PM 62.1 °F 34.0 °F 35% 29.70 in 10.0 mi WNW 15.0 mph - N/A   Clear
8:53 PM 57.9 °F 37.9 °F 47% 29.73 in 10.0 mi WNW 17.3 mph 27.6 mph N/A   Clear
9:53 PM 55.9 °F 37.0 °F 49% 29.71 in 10.0 mi West 8.1 mph - N/A   Clear
10:53 PM 52.0 °F 37.9 °F 59% 29.73 in 10.0 mi West 4.6 mph - N/A   Clear
11:53 PM 57.0 °F 37.0 °F 47% 29.71 in 10.0 mi West 6.9 mph - N/A   Mostly Cloudy